Cumberland, WI

5:28 AM CST on January 23, 2017 (GMT -0600)
Cumberland Municipal

Weather History for KUBE - May, 2014

Change the Weather History Date:

Sunday, May 11, 2014

  Actual Average (KRPD) Record (KRPD)
Temperature  
Mean Temperature 58 °F -  
Max Temperature 71 °F 62 °F 75 °F (1998)
Min Temperature 46 °F 42 °F 37 °F (2002)
Degree Days  
Heating Degree Days 6    
Growing Degree Days 8 (Base 50)    
Moisture  
Dew Point 48 °F    
Average Humidity 65    
Maximum Humidity 94    
Minimum Humidity 38    
Precipitation  
Precipitation 0.12 in - - ()
Sea Level Pressure  
Sea Level Pressure 29.87 in    
Wind  
Wind Speed 5 mph (ESE)    
Max Wind Speed 8 mph    
Max Gust Speed -    
Visibility 10 miles    
Events Rain , Thunderstorm    
Averages and records for this station are not official NWS values.
T = Trace of Precipitation, MM = Missing Value Source: NWS Daily Summary

Daily Weather History Graph

Daily Weather History Graph

Search for Another Location

Airport or City:

Trip Planner

Search our weather history database for the weather conditions in past years. The results will help you decide how hot, cold, wet, or windy it might be!

Date:

Astronomy

May. 11, 2014 Rise Set
Actual Time 5:42 AM CDT 8:27 PM CDT
Civil Twilight 5:08 AM CDT 9:01 PM CDT
Nautical Twilight 4:24 AM CDT 9:44 PM CDT
Astronomical Twilight 3:34 AM CDT 10:35 PM CDT
Moon 5:14 PM CDT (5/11) 3:58 AM CDT (5/11)
Length of Visible Light 15h 53m
Length of Day
14h 45m
Waxing Gibbous, 89% of the Moon is Illuminated
May 11
Waxing Gibbous
May 14
Full
May 21
Last Quarter
May 28
New
Jun 5
First Quarter

Hourly Weather History & Observations

Time (CDT) Temp. Windchill Dew Point Humidity Pressure Visibility Wind Dir Wind Speed Gust Speed Precip Events Conditions
12:15 AM 51.8 °F - 50.0 °F 94% 29.88 in 10.0 mi SSE 6.9 mph - N/A   Overcast
12:35 AM 53.6 °F - 50.0 °F 88% 29.88 in 10.0 mi SE 8.1 mph - N/A   Mostly Cloudy
12:55 AM 53.6 °F - 48.2 °F 82% 29.87 in 10.0 mi SE 6.9 mph - N/A   Scattered Clouds
1:15 AM 51.8 °F - 48.2 °F 88% 29.87 in 10.0 mi SE 6.9 mph - N/A   Clear
1:35 AM 51.8 °F - 48.2 °F 88% 29.87 in 10.0 mi SE 8.1 mph - N/A   Clear
1:55 AM 51.8 °F - 48.2 °F 88% 29.87 in 10.0 mi SE 5.8 mph - N/A   Clear
2:15 AM 51.8 °F - 46.4 °F 82% 29.87 in 10.0 mi SE 5.8 mph - N/A   Clear
2:35 AM 51.8 °F - 46.4 °F 82% 29.87 in 10.0 mi SE 5.8 mph - N/A   Clear
2:55 AM 50.0 °F - 46.4 °F 87% 29.87 in 10.0 mi SE 5.8 mph - N/A   Scattered Clouds
3:15 AM 50.0 °F - 46.4 °F 87% 29.87 in 10.0 mi ESE 4.6 mph - N/A   Scattered Clouds
3:35 AM 50.0 °F - 46.4 °F 87% 29.86 in 10.0 mi ESE 4.6 mph - N/A   Mostly Cloudy
3:55 AM 50.0 °F - 46.4 °F 87% 29.86 in 10.0 mi ESE 3.5 mph - N/A   Mostly Cloudy
4:15 AM 51.8 °F - 46.4 °F 82% 29.86 in 10.0 mi ESE 4.6 mph - N/A   Scattered Clouds
4:35 AM 50.0 °F - 46.4 °F 87% 29.86 in 10.0 mi ENE 3.5 mph - N/A   Scattered Clouds
4:55 AM 50.0 °F - 46.4 °F 87% 29.86 in 10.0 mi East 3.5 mph - N/A   Mostly Cloudy
5:15 AM 50.0 °F - 46.4 °F 87% 29.86 in 10.0 mi East 3.5 mph - N/A   Scattered Clouds
5:35 AM 50.0 °F - 46.4 °F 87% 29.86 in 10.0 mi Calm Calm - N/A   Mostly Cloudy
5:55 AM 46.4 °F 44.3 °F 44.6 °F 93% 29.87 in 10.0 mi ESE 4.6 mph - N/A   Mostly Cloudy
6:15 AM 51.8 °F - 46.4 °F 82% 29.87 in 10.0 mi SE 5.8 mph - N/A   Mostly Cloudy
6:35 AM 51.8 °F - 46.4 °F 82% 29.88 in 10.0 mi Calm Calm - N/A   Scattered Clouds
6:55 AM 51.8 °F - 46.4 °F 82% 29.88 in 10.0 mi ENE 4.6 mph - N/A   Mostly Cloudy
7:15 AM 51.8 °F - 46.4 °F 82% 29.88 in 10.0 mi ENE 3.5 mph - N/A   Scattered Clouds
7:35 AM 53.6 °F - 46.4 °F 77% 29.88 in 10.0 mi ENE 4.6 mph - N/A   Clear
7:55 AM 55.4 °F - 48.2 °F 77% 29.87 in 10.0 mi East 4.6 mph - N/A   Clear
8:15 AM 59.0 °F - 48.2 °F 67% 29.87 in 10.0 mi East 5.8 mph - N/A   Clear
8:35 AM 59.0 °F - 46.4 °F 63% 29.89 in 10.0 mi SE 5.8 mph - N/A   Clear
8:55 AM 60.8 °F - 46.4 °F 59% 29.89 in 10.0 mi SE 5.8 mph - N/A   Clear
9:15 AM 60.8 °F - 46.4 °F 59% 29.89 in 10.0 mi Calm Calm - N/A   Clear
9:55 AM 62.6 °F - 46.4 °F 55% 29.89 in 10.0 mi South 4.6 mph - N/A   Clear
10:15 AM 62.6 °F - 46.4 °F 55% 29.89 in 10.0 mi South 3.5 mph - N/A   Clear
10:35 AM 62.6 °F - 46.4 °F 55% 29.89 in 10.0 mi Calm Calm - N/A   Clear
10:55 AM 64.4 °F - 46.4 °F 52% 29.89 in 10.0 mi Calm Calm - N/A   Clear
11:15 AM 64.4 °F - 46.4 °F 52% 29.90 in 10.0 mi Calm Calm - N/A   Clear
11:35 AM 68.0 °F - 46.4 °F 46% 29.91 in 10.0 mi Calm Calm - N/A   Clear
11:55 AM 68.0 °F - 46.4 °F 46% 29.90 in 10.0 mi ENE 4.6 mph - N/A   Clear
12:15 PM 69.8 °F - 46.4 °F 43% 29.89 in 10.0 mi ESE 5.8 mph - N/A   Clear
12:35 PM 69.8 °F - 46.4 °F 43% 29.88 in 10.0 mi NNE 3.5 mph - N/A   Clear
12:55 PM 69.8 °F - 46.4 °F 43% 29.87 in 10.0 mi East 5.8 mph - N/A   Clear
1:15 PM 69.8 °F - 46.4 °F 43% 29.87 in 10.0 mi NNE 3.5 mph - N/A   Clear
1:35 PM 69.8 °F - 44.6 °F 40% 29.89 in 10.0 mi Calm Calm - N/A   Clear
1:55 PM 71.6 °F - 44.6 °F 38% 29.90 in 10.0 mi SE 8.1 mph - N/A   Clear
2:15 PM 69.8 °F - 48.2 °F 46% 29.91 in 10.0 mi South 6.9 mph - N/A   Mostly Cloudy
2:35 PM 68.0 °F - 48.2 °F 49% 29.92 in 10.0 mi SSW 8.1 mph - N/A   Overcast
2:55 PM 68.0 °F - 46.4 °F 46% 29.89 in 10.0 mi Calm Calm - N/A   Overcast
3:15 PM 68.0 °F - 46.4 °F 46% 29.89 in 10.0 mi ESE 4.6 mph - N/A   Mostly Cloudy
3:35 PM 69.8 °F - 46.4 °F 43% 29.89 in 10.0 mi SE 5.8 mph - N/A   Mostly Cloudy
3:55 PM 68.0 °F - 46.4 °F 46% 29.89 in 10.0 mi South 5.8 mph - N/A   Overcast
4:15 PM 69.8 °F - 46.4 °F 43% 29.88 in 10.0 mi SSE 6.9 mph - N/A   Overcast
4:35 PM 68.0 °F - 48.2 °F 49% 29.88 in 10.0 mi SSE 6.9 mph - N/A   Overcast
5:15 PM 68.0 °F - 48.2 °F 49% 29.87 in 10.0 mi Calm Calm - N/A   Overcast
5:35 PM 68.0 °F - 48.2 °F 49% 29.87 in 10.0 mi SE 4.6 mph - N/A   Overcast
5:55 PM 66.2 °F - 50.0 °F 56% 29.87 in 10.0 mi SE 4.6 mph - N/A   Overcast
6:15 PM 66.2 °F - 48.2 °F 52% 29.86 in 10.0 mi ESE 4.6 mph - N/A   Overcast
6:35 PM 68.0 °F - 48.2 °F 49% 29.84 in 10.0 mi SE 3.5 mph - N/A   Overcast
6:55 PM 66.2 °F - 48.2 °F 52% 29.84 in 10.0 mi East 4.6 mph - N/A   Overcast
7:15 PM 64.4 °F - 50.0 °F 59% 29.84 in 10.0 mi East 4.6 mph - N/A   Overcast
7:35 PM 64.4 °F - 50.0 °F 59% 29.84 in 10.0 mi East 3.5 mph - N/A   Overcast
7:55 PM 64.4 °F - 50.0 °F 59% 29.85 in 10.0 mi East 3.5 mph - N/A   Overcast
8:15 PM 62.6 °F - 51.8 °F 68% 29.83 in 10.0 mi NE 4.6 mph - N/A   Overcast
8:35 PM 62.6 °F - 50.0 °F 63% 29.83 in 10.0 mi East 4.6 mph - N/A   Overcast
8:55 PM 62.6 °F - 50.0 °F 63% 29.84 in 10.0 mi East 4.6 mph - N/A   Overcast
9:15 PM 62.6 °F - 50.0 °F 63% 29.85 in 10.0 mi East 3.5 mph - N/A   Overcast
9:35 PM 62.6 °F - 50.0 °F 63% 29.83 in 10.0 mi ENE 5.8 mph - N/A   Mostly Cloudy
9:55 PM 62.6 °F - 51.8 °F 68% 29.81 in 10.0 mi East 6.9 mph - N/A   Mostly Cloudy
10:15 PM 60.8 °F - 51.8 °F 72% 29.82 in 10.0 mi East 5.8 mph - N/A   Mostly Cloudy
10:35 PM 62.6 °F - 51.8 °F 68% 29.81 in 10.0 mi East 6.9 mph - N/A   Overcast
10:55 PM 62.6 °F - 50.0 °F 63% 29.82 in 10.0 mi East 4.6 mph - N/A   Overcast
11:15 PM 62.6 °F - 51.8 °F 68% 29.84 in 10.0 mi East 3.5 mph - 0.01 in Rain , Thunderstorm Light Thunderstorms and Rain
11:35 PM 59.0 °F - 53.6 °F 82% 29.85 in 7.0 mi South 4.6 mph - 0.03 in Rain , Thunderstorm Thunderstorms and Rain
11:55 PM 59.0 °F - 53.6 °F 82% 29.84 in 5.0 mi ESE 8.1 mph - 0.12 in Rain Heavy Rain